STARLINK-30284, 57877

Orbit data source: Space-Track

STARLINK-30284, 57877 is a payload satellite owned by SpaceX/Seattle (US) in LEO that was launched on Sat, 16 Sep 2023 UTC via an FALCON 9 launch vehicle from the Air Force Eastern Test Range (AFETR). Payload-class satellites include a variety of spacecraft equipped with specific instruments for various scientific and technological missions. These include communications satellites like Starlink; space stations such as the ISS; scientific satellites like the Hubble; Earth observation satellites from companies like Planet Labs, Umbra, and HawkEye 360; GPS; miniature CubeSats for education and research; and military/defense satellites.

Loading next visibility...
Identifier
57877, 2023-144P
Orbit
LEO
Country
Flag of USUS
Related business
Manufacturer
SpaceX/Seattle
Mission
Operational Commercial Communications
Bus & Motor
STARLINK V2M, Unknown motor
Mass
730 kg wet, ~700 kg dry
Launch date (UTC)
2023-09-16 (2 years ago)
Launch vehicle
FALCON 9
Launch site
Air Force Eastern Test Range (AFETR)
Object type
Payload
Rocket body
Debris
Shape & HBR
Box + 2 Pan, 17.7 m
Radar Cross Section
33.884 m², Large (>1 m²)

Expand to show TLE details & history
Last TLE update: 19 hours ago

TLE from 19 hours ago
0 STARLINK-30284
1 57877U 23144P   25348.87802339  .00002540  00000-0  20308-3 0  9997
2 57877  43.0049 349.9975 0001237 255.1662 104.9043 15.02522764125296
Epoch: 2025-12-14T21:04Z
TLE epoch observation values (Epoch: 2025-12-14T21:04:21.220Z)
Latitude
-0.00006°
Longitude
-49.87561°
Altitude
559.12 km
Speed
7.584 km/s
True Right ascension
23h 19m 59s
True Declination
0° 00' 00"
Sunlit
Object was in daylight at epoch
Visualization orbit readout
Latitude
Unknown
Longitude
Unknown
Altitude
Unknown
Speed
Unknown
Apparent Right ascension
Unknown
Apparent Declination
Unknown
Sunlit
N/A
Visualization observer readout
Local Sidereal Time
15:11:06
Azimuth
Unknown
Elevation
Unknown
Doppler factor
Unknown
Orbital elements
Apogee altitude
561.902 km
Perigee altitude
560.185 km
Semi-major axis
6,939.18 km
Eccentricity
0.00012
Inclination
43.0049°
RAAN
349.9975°
Arg. of periapsis
255.1662°
True anomaly
104.918°
Mean anomaly
104.9043°
Eccentric anomaly
104.91115°
Mean motion
3.75475 °/min
Orbital period
95.88 mins
BSTAR
0.00020308
Loading maneuver chart data...
Computing Atmospheric mass density...
Loading historical data...
Loading historical data...
Loading historical data...
Loading historical data...
Loading historical data...
Loading historical data...
Loading historical data...

Documentation

Showing up to 5 results
|